Mount Pleasant, SC

1:20 PM EST on February 09, 2016 (GMT -0500)
BayView Acres | | Change Station
CLOSE
Current Station
Personal Weather Station
Location: Mt Pleasant, SC
Elevation: 13 ft
Nearby Weather Stations
Active Advisory: Special Statement

Elev 13 ft 32.80 °N, 79.89 °W | Updated 12 days ago

Cloudy
Cloudy
45 °F
Feels Like 37 °F
N
17
Wind Variable Wind from West
Gusts 25 mph

Today
High -- | Low -- °F
--% Chance of Precip.
Yesterday
High -- | Low -- °F
Precip. -- in
Pressure 29.79 in
Visibility 10.0 miles
Clouds Mostly Cloudy 4800 ft
Overcast 5500 ft
Windchill 37 °F
Dew Point 26 °F
Humidity 46%
Rainfall in
Snow Depth Not available.
7:08 AM 5:59 PM
New Moon, 2% visible
METAR KJZI 091815Z AUTO 25011G18KT 10SM BKN048 OVC055 07/M03 A2979 RMK AO2
Pressure 29.79 in
Visibility 10.0 miles
Clouds Mostly Cloudy 4800 ft
Overcast 5500 ft
Windchill 37 °F
Dew Point 26 °F
Humidity 46%
Rainfall in
Snow Depth Not available.
7:08 AM 5:59 PM
New Moon, 2% visible
METAR KJZI 091815Z AUTO 25011G18KT 10SM BKN048 OVC055 07/M03 A2979 RMK AO2

10-Day Weather Forecast

Almanac

Astronomy

Feb. 09, 2016 Rise Set
Actual Time
Civil Twilight
Nautical Twilight
Astronomical Twilight
Moon
Length of Visible Light
Length of Day
Tomorrow will be .
, % of the Moon is Illuminated

Today's Extremes

State Highs State Lows

Community

WunderPhotos

Upload Photos

1,891,651 photos uploaded!

WunderBlog® & News

Nearby

Air Quality

  Air Quality AQ Index Pollutant
Not available.

Snow Depth

Station Depth Elevation

Earthquake Activity

City Distance Mag. Time & Date
Minimum magnitude displayed is 2.5.

Coastal Water Temperatures

Place Temperature

Stations

Nearby Weather Stations

Station Location Temp. Windchill Dew Point Humidity Wind Precip. Elev Updated Type
                   

Watches & Warnings

Special Statement
Issued: 10:54 AM EST Feb. 9, 2016 – National Weather Service

... Breezy conditions through this afternoon...

West winds are expected to gust as high as around 35 mph through
this evening... with a few higher gusts possible... especially on
elevated roadways such as bridges and overpasses. This could lead
to the felling of some weaker trees due to very wet grounds.

Precautionary/preparedness actions...

Be careful when driving high profile vehicles across bridges and
overpasses. Be alert for the possibility that some weak trees
could fall.